{"data":{"norad_id":65528,"epoch":"2026-05-25T04:05:34.808064Z","epoch_age_seconds":54105,"freshness":"FRESH","line1":"1 65528U 25200J   26145.17054176  .00032288  00000+0  22317-2 0  9993","line2":"2 65528  97.4466 214.8916 0002533 148.4423 211.6956 15.05648880 40643","mean_motion":15.0564888,"eccentricity":0.0002533,"inclination_deg":97.4466,"raan_deg":214.8916,"arg_perigee_deg":148.4423,"mean_anomaly_deg":211.6956,"bstar":0.0022317,"rev_number":4064,"period_min":95.639828058717,"perigee_km":547.75981538257,"apogee_km":551.26936367783,"semimajor_km":6927.6515895302,"source":"CELESTRAK","updated_at":"2026-05-25T13:38:20.847797Z"}}